TimeMDT,TemperatureF,Dew PointF,Humidity,Sea Level PressureIn,VisibilityMPH,Wind Direction,Wind SpeedMPH,Gust SpeedMPH,PrecipitationIn,Events,Conditions,WindDirDegrees,DateUTC
12:53 AM,50.0,35.1,57,30.09,10.0,WNW,10.4,-,N/A,,Clear,300,2012-10-14 06:53:00
1:53 AM,48.9,36.0,61,30.10,10.0,WNW,8.1,-,N/A,,Clear,290,2012-10-14 07:53:00
2:53 AM,51.1,35.1,54,30.09,10.0,West,8.1,-,N/A,,Clear,260,2012-10-14 08:53:00
3:53 AM,50.0,35.1,57,30.09,10.0,West,9.2,-,N/A,,Clear,260,2012-10-14 09:53:00
4:53 AM,50.0,35.1,57,30.10,10.0,West,11.5,-,N/A,,Clear,280,2012-10-14 10:53:00
5:53 AM,54.0,34.0,47,30.11,10.0,WNW,15.0,-,N/A,,Partly Cloudy,290,2012-10-14 11:53:00
6:53 AM,53.1,34.0,48,30.12,10.0,West,13.8,-,N/A,,Partly Cloudy,280,2012-10-14 12:53:00
7:53 AM,53.1,34.0,48,30.13,10.0,WNW,12.7,-,N/A,,Partly Cloudy,290,2012-10-14 13:53:00
8:53 AM,48.9,34.0,56,30.15,10.0,WSW,11.5,-,N/A,,Partly Cloudy,250,2012-10-14 14:53:00
9:53 AM,52.0,35.1,53,30.14,10.0,WSW,9.2,-,N/A,,Partly Cloudy,240,2012-10-14 15:53:00
10:53 AM,57.9,36.0,44,30.12,10.0,SW,9.2,-,N/A,,Partly Cloudy,220,2012-10-14 16:53:00
11:53 AM,64.0,35.1,34,30.08,10.0,SW,11.5,16.1,N/A,,Partly Cloudy,220,2012-10-14 17:53:00
12:53 PM,69.1,33.1,26,30.04,10.0,West,19.6,28.8,N/A,,Partly Cloudy,270,2012-10-14 18:53:00
1:53 PM,71.1,32.0,24,30.01,10.0,WNW,16.1,-,N/A,,Partly Cloudy,290,2012-10-14 19:53:00
2:53 PM,72.0,32.0,23,29.98,10.0,West,16.1,-,N/A,,Partly Cloudy,280,2012-10-14 20:53:00
3:53 PM,70.0,32.0,25,29.98,10.0,West,20.7,26.5,N/A,,Scattered Clouds,280,2012-10-14 21:53:00
4:53 PM,70.0,30.9,24,29.97,10.0,WNW,13.8,-,N/A,,Mostly Cloudy,300,2012-10-14 22:53:00
5:53 PM,66.0,33.1,29,29.96,10.0,WNW,4.6,-,N/A,,Scattered Clouds,300,2012-10-14 23:53:00
6:53 PM,64.9,32.0,29,29.94,10.0,SW,5.8,-,N/A,,Mostly Cloudy,220,2012-10-15 00:53:00
7:53 PM,63.0,32.0,31,29.93,10.0,WSW,6.9,-,N/A,,Scattered Clouds,240,2012-10-15 01:53:00
8:53 PM,61.0,32.0,34,29.94,10.0,WSW,8.1,-,N/A,,Partly Cloudy,250,2012-10-15 02:53:00
9:53 PM,61.0,30.9,32,29.91,10.0,SW,11.5,-,N/A,,Clear,230,2012-10-15 03:53:00
10:53 PM,60.1,30.9,33,29.88,10.0,WSW,13.8,-,N/A,,Clear,240,2012-10-15 04:53:00
11:53 PM,61.0,30.9,32,29.84,10.0,SW,13.8,-,N/A,,Clear,230,2012-10-15 05:53:00